Station TPLM2 - Thomas Point, MD Image indicating link to RSS feed of recent meteorological observations for station TPLM2


Conditions at TPLM2 as of
(1:00 pm EDT)
1700 GMT on 06/16/2024:
     

Click on the graph icon in the table below to see a time series plot of the last five days of that observation.

5-day plot - Wind Speed Wind Speed (WSPD): 0 kts
5-day plot - Wind Gust Wind Gust (GST): 1 kts
5-day plot - Atmospheric Pressure Atmospheric Pressure (PRES):30.25 in
5-day plot - Pressure Tendency Pressure Tendency (PTDY):+0.00 in ( Steady )
5-day plot - Air Temperature Air Temperature (ATMP): 78.1 °F
5-day plot - Wind Speed at 10 Meters Wind Speed at 10 meters (WSPD10M): 0 kts
5-day plot - Wind Speed at 20 Meters Wind Speed at 20 meters (WSPD20M): 0 kts
5-day plot -  Wind Speed, Wind Gust and Atmospheric Pressure Combined plot of Wind Speed, Gust, and Air Pressure
Continuous Winds
TIME
(EDT)
5-day plot - Wind Direction WDIR 5-day plot - Wind Speed WSPD
1:00 pmE ( 80 deg ) 0 kts
12:50 pmENE ( 58 deg ) 0 kts
12:40 pmNNE ( 18 deg ) 0 kts
12:30 pmNE ( 37 deg ) 0 kts
12:20 pmNNE ( 12 deg ) 1 kts
12:10 pmNNE ( 14 deg ) 1 kts
 
Peak gust during the measurement hour
TIME
(EDT)
5-day plot - Gust Direction GDR 5-day plot - Gust Speed GST
12:00 pmN ( 350 deg ) 3 kts
Previous observations
TIME
(EDT)
5-day plot - Wind Direction
WDIR
 
5-day plot - Wind Speed
WSPD
kts
5-day plot - Wind Gust
GST
kts
5-day plot - Wave Height
WVHT
ft
5-day plot - Dominant Wave Period
DPD
sec
5-day plot - Average Wave Period
APD
sec
5-day plot - Mean Wave Direction
MWD
 
5-day plot - Atmospheric Pressure
PRES
in
5-day plot - Pressure Tendency
PTDY
in
5-day plot - Air Temperature
ATMP
°F
5-day plot - Water Temperature
WTMP
°F
5-day plot - Dew Point
DEWP
°F
5-day plot - Salinity
SAL
psu
5-day plot - Visibility
VIS
nmi
5-day plot - Tide (above MLLW)
TIDE
ft
2024-06-16 12:00 pm N 1 3----30.25+0.00 74.5-----
2024-06-16 11:00 am N 2 3----30.25+0.03 73.6-----
2024-06-16 10:00 amNNE 3 4----30.24+0.04 72.3-----
2024-06-16 09:00 amNNE 7 7----30.24+0.06 71.6-----
2024-06-16 08:00 am N 10 10----30.22+0.05 71.1-----
2024-06-16 07:00 amNNW 9 9----30.21+0.04 70.5-----
2024-06-16 06:00 am NW 3 3----30.18+0.02 70.3-----
2024-06-16 05:00 amWNW 4 4----30.17+0.02 70.9-----
2024-06-16 04:00 amNNW 2 3----30.17+0.02 71.1-----
2024-06-16 03:00 amWNW 2 3----30.16+0.02 71.8-----
2024-06-16 02:00 am W 5 5----30.15+0.03 71.8-----
2024-06-16 01:00 amWSW 3 4----30.15+0.03 73.2-----
2024-06-16 12:00 am NE 1 2----30.14+0.04 75.4-----
2024-06-15 11:00 pm E 2 2----30.13+0.04 75.6-----
2024-06-15 10:00 pm NE 4 4----30.12+0.05 77.2-----
2024-06-15 09:00 pmNNE 6 6----30.10+0.03 77.4-----
2024-06-15 08:00 pmNNE 8 8----30.08+0.01 77.9-----
2024-06-15 07:00 pmNNE 8 9----30.07+0.01 78.3-----
2024-06-15 06:00 pmNNE 7 8----30.07+0.01 77.9-----
2024-06-15 05:00 pmNNE 10 11----30.07+0.00 77.4-----
2024-06-15 04:00 pmNNE 10 11----30.06-0.01 77.0-----
2024-06-15 03:00 pmNNE 12 13----30.06-0.02 76.1-----
2024-06-15 02:00 pmNNE 12 13----30.06-0.01 75.4-----
2024-06-15 01:00 pm N 12 13----30.08+0.03 74.7-----